| time (UTC) | temp F | wind direction | speed MPH | gust MPH | rain 1hr in | rain 24hr in | rain mn in | humidity % | barometer mb |
| 20260506013010 | 72 | 240 | 1.0 | 6.0 | 0.00 | 0.00 | 0.00 | 55 | 1002.3 |
| 20260506011524 | 73 | 249 | 0.0 | 5.0 | 0.00 | 0.00 | 0.00 | 52 | 1002.2 |
| 20260506010120 | 74 | 278 | 0.0 | 4.0 | 0.00 | 0.00 | 0.00 | 50 | 1002.1 |
| 20260506004526 | 75 | 247 | 1.0 | 6.0 | 0.00 | 0.00 | 0.00 | 47 | 1002.0 |
| 20260506003100 | 75 | 256 | 0.0 | 7.0 | 0.00 | 0.00 | 0.00 | 44 | 1001.8 |
| 20260506001513 | 76 | 263 | 1.0 | 4.0 | 0.00 | 0.00 | 0.00 | 44 | 1001.7 |
| 20260506000037 | 77 | 286 | 2.0 | 6.0 | 0.00 | 0.00 | 0.00 | 43 | 1001.5 |
| 20260505234501 | 77 | 259 | 2.0 | 6.0 | 0.00 | 0.00 | 0.00 | 44 | 1001.3 |
| 20260505233039 | 77 | 251 | 4.0 | 7.0 | 0.00 | 0.00 | 0.00 | 43 | 1001.3 |
| 20260505231600 | 78 | 244 | 2.0 | 6.0 | 0.00 | 0.00 | 0.00 | 43 | 1001.2 |
| 20260505230026 | 79 | 269 | 3.0 | 8.0 | 0.00 | 0.00 | 0.00 | 41 | 1001.2 |
| 20260505224541 | 80 | 266 | 4.0 | 11.0 | 0.00 | 0.00 | 0.00 | 40 | 1001.1 |
| 20260505223059 | 81 | 282 | 4.0 | 9.0 | 0.00 | 0.00 | 0.00 | 36 | 1000.9 |
| 20260505221521 | 82 | 254 | 2.0 | 15.0 | 0.00 | 0.00 | 0.00 | 35 | 1000.8 |
| 20260505220037 | 82 | 249 | 3.0 | 21.0 | 0.00 | 0.00 | 0.00 | 34 | 1000.8 |
| 20260505214633 | 83 | 279 | 3.0 | 9.0 | 0.00 | 0.00 | 0.00 | 33 | 1000.4 |
| 20260505213026 | 82 | 249 | 4.0 | 21.0 | 0.00 | 0.00 | 0.00 | 32 | 1000.7 |
| 20260505211551 | 83 | 263 | 4.0 | 17.0 | 0.00 | 0.00 | 0.00 | 32 | 1000.8 |
| 20260505210017 | 82 | 187 | 6.0 | 16.0 | 0.00 | 0.00 | 0.00 | 31 | 1000.8 |
| 20260505204540 | 83 | 234 | 4.0 | 14.0 | 0.00 | 0.00 | 0.00 | 29 | 1000.6 |
| 20260505203002 | 84 | 251 | 5.0 | 20.0 | 0.00 | 0.00 | 0.00 | 29 | 1000.6 |
| 20260505201526 | 83 | 261 | 5.0 | 11.0 | 0.00 | 0.00 | 0.00 | 30 | 1000.5 |
| 20260505200003 | 83 | 227 | 3.0 | 11.0 | 0.00 | 0.00 | 0.00 | 31 | 1000.7 |
| 20260505194535 | 83 | 256 | 4.0 | 12.0 | 0.00 | 0.00 | 0.00 | 32 | 1000.8 |
| 20260505193100 | 82 | 250 | 8.0 | 20.0 | 0.00 | 0.00 | 0.00 | 33 | 1000.8 |
| 20260505191516 | 82 | 197 | 5.0 | 15.0 | 0.00 | 0.00 | 0.00 | 35 | 1001.2 |
| 20260505190056 | 82 | 250 | 2.0 | 14.0 | 0.00 | 0.00 | 0.00 | 38 | 1001.3 |
| 20260505184505 | 82 | 266 | 4.0 | 10.0 | 0.00 | 0.00 | 0.00 | 36 | 1001.5 |
| 20260505183100 | 82 | 273 | 2.0 | 8.0 | 0.00 | 0.00 | 0.00 | 39 | 1001.8 |
| 20260505181503 | 81 | 273 | 4.0 | 10.0 | 0.00 | 0.00 | 0.00 | 39 | 1001.9 |
| 20260505180012 | 81 | 279 | 2.0 | 9.0 | 0.00 | 0.00 | 0.00 | 42 | 1002.2 |
| 20260505173041 | 80 | 282 | 5.0 | 16.0 | 0.00 | 0.00 | 0.00 | 42 | 1002.3 |
| 20260505171513 | 81 | 260 | 3.0 | 11.0 | 0.00 | 0.00 | 0.00 | 42 | 1002.5 |
| 20260505170030 | 81 | 248 | 2.0 | 5.0 | 0.00 | 0.00 | 0.00 | 43 | 1002.4 |
| 20260505164555 | 80 | 255 | 3.0 | 6.0 | 0.00 | 0.00 | 0.00 | 45 | 1002.7 |
| 20260505163030 | 79 | 249 | 2.0 | 8.0 | 0.00 | 0.00 | 0.00 | 45 | 1002.7 |
| 20260505161536 | 79 | 249 | 2.0 | 8.0 | 0.00 | 0.00 | 0.00 | 44 | 1002.8 |
| 20260505153003 | 79 | 251 | 1.0 | 5.0 | 0.00 | 0.00 | 0.00 | 44 | 1003.2 |
| 20260505151604 | 78 | 257 | 0.0 | 4.0 | 0.00 | 0.00 | 0.00 | 49 | 1003.2 |
| 20260505124518 | 66 | 253 | 5.0 | 14.0 | 0.00 | 0.00 | 0.00 | 61 | 1003.8 |
| 20260505123043 | 66 | 257 | 2.0 | 4.0 | 0.00 | 0.00 | 0.00 | 62 | 1003.7 |
| 20260505121550 | 65 | 254 | 0.0 | 5.0 | 0.00 | 0.00 | 0.00 | 64 | 1003.6 |
| 20260505120111 | 64 | 299 | 3.0 | 11.0 | 0.00 | 0.00 | 0.00 | 66 | 1003.7 |
| 20260505114542 | 63 | 273 | 0.0 | 8.0 | 0.00 | 0.00 | 0.00 | 69 | 1003.7 |
| 20260505113054 | 63 | 274 | 1.0 | 7.0 | 0.00 | 0.00 | 0.00 | 70 | 1003.7 |
| 20260505111503 | 62 | 256 | 1.0 | 3.0 | 0.00 | 0.00 | 0.00 | 71 | 1003.3 |
| 20260505101527 | 61 | 275 | 0.0 | 3.0 | 0.00 | 0.00 | 0.00 | 73 | 1003.0 |
| 20260505100052 | 61 | 303 | 1.0 | 5.0 | 0.00 | 0.00 | 0.00 | 72 | 1002.9 |
| 20260505094514 | 61 | 269 | 0.0 | 2.0 | 0.00 | 0.00 | 0.00 | 72 | 1002.8 |
| 20260505093044 | 60 | 271 | 0.0 | 3.0 | 0.00 | 0.00 | 0.00 | 73 | 1002.7 |
| 20260505091523 | 59 | 263 | 0.0 | 3.0 | 0.00 | 0.00 | 0.00 | 75 | 1002.7 |
| 20260505090014 | 58 | 282 | 0.0 | 0.0 | 0.00 | 0.00 | 0.00 | 77 | 1002.5 |
| 20260505084536 | 58 | 281 | 0.0 | 0.0 | 0.00 | 0.00 | 0.00 | 76 | 1002.7 |
| 20260505083103 | 59 | 281 | 0.0 | 0.0 | 0.00 | 0.00 | 0.00 | 74 | 1002.7 |
| 20260505081524 | 60 | 282 | 0.0 | 0.0 | 0.00 | 0.00 | 0.00 | 72 | 1002.5 |
| 20260505080052 | 60 | 281 | 0.0 | 0.0 | 0.00 | 0.00 | 0.00 | 72 | 1002.7 |
| 20260505074513 | 61 | 284 | 0.0 | 3.0 | 0.00 | 0.00 | 0.00 | 70 | 1002.7 |
| 20260505073059 | 61 | 292 | 0.0 | 3.0 | 0.00 | 0.00 | 0.00 | 70 | 1002.8 |
| 20260505071515 | 61 | 258 | 0.0 | 4.0 | 0.00 | 0.00 | 0.00 | 69 | 1002.7 |
| 20260505070025 | 62 | 257 | 2.0 | 6.0 | 0.00 | 0.00 | 0.00 | 67 | 1002.7 |
| 20260505064549 | 62 | 294 | 1.0 | 6.0 | 0.00 | 0.00 | 0.00 | 68 | 1002.6 |
| 20260505063015 | 61 | 289 | 1.0 | 9.0 | 0.00 | 0.00 | 0.00 | 69 | 1002.4 |
| 20260505061546 | 61 | 280 | 0.0 | 6.0 | 0.00 | 0.00 | 0.00 | 68 | 1002.7 |
| 20260505060046 | 62 | 259 | 1.0 | 4.0 | 0.00 | 0.00 | 0.00 | 67 | 1002.7 |
| 20260505054512 | 61 | 273 | 0.0 | 3.0 | 0.00 | 0.00 | 0.00 | 68 | 1002.6 |
| 20260505053035 | 61 | 266 | 0.0 | 4.0 | 0.00 | 0.00 | 0.00 | 67 | 1002.7 |
| 20260505051503 | 61 | 273 | 0.0 | 1.0 | 0.00 | 0.00 | 0.00 | 67 | 1002.8 |
| 20260505041531 | 61 | 275 | 0.0 | 1.0 | 0.00 | 0.00 | 0.00 | 64 | 1002.7 |
| 20260505040048 | 61 | 277 | 0.0 | 3.0 | 0.00 | 0.00 | 0.00 | 63 | 1002.7 |
| 20260505034514 | 61 | 261 | 0.0 | 2.0 | 0.00 | 0.00 | 0.00 | 59 | 1002.7 |
| 20260505033020 | 62 | 261 | 0.0 | 0.0 | 0.00 | 0.00 | 0.00 | 57 | 1002.7 |
| 20260505031542 | 62 | 261 | 0.0 | 0.0 | 0.00 | 0.00 | 0.00 | 56 | 1002.8 |
| 20260505030047 | 62 | 261 | 0.0 | 1.0 | 0.00 | 0.00 | 0.00 | 55 | 1002.8 |
| 20260505024515 | 63 | 261 | 0.0 | 1.0 | 0.00 | 0.00 | 0.00 | 52 | 1002.9 |
| 20260505023027 | 64 | 261 | 0.0 | 2.0 | 0.00 | 0.00 | 0.00 | 50 | 1003.0 |
| 20260505021544 | 64 | 270 | 0.0 | 3.0 | 0.00 | 0.00 | 0.00 | 51 | 1003.0 |
| 20260505014520 | 64 | 278 | 0.0 | 0.0 | 0.00 | 0.00 | 0.00 | 53 | 1002.9 |